When you browse on this site, cookies collect data to enhance your experience and personalize the content and advertising you see.
Visit our Privacy Policy to learn more. By continuing to use the site, you agree to this use of cookies and data.
  • In France
  • List of Countries
  • For 7 days
  • Water Temperature
  • Satellite Maps
  • Weather Map
  • Weather Widgets
  • user-avatar
    Login

    Hourly Weather Gjirokaster

    Today, 18 December, Tuesday

    Time Temperature Precipitation Wind Pressure Humidity
    00:00 -1°C° 0.9 mm 3 mps 647 mmHg 86%
    01:00 -1°C° 0 mm 2 mps 646 mmHg 87%
    02:00 -2°C° 0.9 mm 3 mps 646 mmHg 86%
    03:00 -2°C° 0.9 mm 3 mps 647 mmHg 85%
    04:00 -2°C° 0.9 mm 3 mps 647 mmHg 84%
    05:00 -2°C° 0.7 mm 3 mps 647 mmHg 85%
    06:00 -2°C° 0.7 mm 3 mps 647 mmHg 85%
    07:00 -2°C° 0.7 mm 3 mps 648 mmHg 86%
    08:00 -2°C° 0.2 mm 3 mps 648 mmHg 85%
    09:00 -2°C° 0.2 mm 3 mps 648 mmHg 84%
    10:00 -1°C° 0.2 mm 3 mps 649 mmHg 83%
    11:00 -1°C° 0.1 mm 3 mps 649 mmHg 81%
    12:00 0°C° 0.1 mm 3 mps 649 mmHg 80%
    13:00 +1°C° 0.1 mm 3 mps 650 mmHg 78%
    14:00 0°C° 0 mm 3 mps 650 mmHg 80%
    15:00 0°C° 0 mm 3 mps 650 mmHg 81%
    16:00 -1°C° 0 mm 3 mps 650 mmHg 83%
    17:00 -1°C° 0 mm 3 mps 650 mmHg 83%
    18:00 -2°C° 0 mm 3 mps 651 mmHg 83%
    19:00 -4°C° 0 mm 3 mps 651 mmHg 83%
    20:00 -4°C° 0 mm 3 mps 651 mmHg 83%
    21:00 -4°C° 0 mm 3 mps 651 mmHg 82%
    22:00 -4°C° 0 mm 3 mps 651 mmHg 82%
    23:00 -4°C° 0 mm 3 mps 651 mmHg 82%

    Tomorrow, 19 December, Wednesday

    Time Temperature Precipitation Wind Pressure Humidity
    00:00 -4°C° 0 mm 3 mps 651 mmHg 81%
    01:00 -5°C° 0 mm 3 mps 651 mmHg 81%
    02:00 -5°C° 0 mm 3 mps 651 mmHg 81%
    03:00 -5°C° 0 mm 3 mps 651 mmHg 81%
    04:00 -5°C° 0 mm 3 mps 651 mmHg 81%
    05:00 -5°C° 0 mm 3 mps 652 mmHg 81%
    06:00 -5°C° 0 mm 3 mps 652 mmHg 81%
    07:00 -5°C° 0 mm 3 mps 652 mmHg 81%
    08:00 -4°C° 0 mm 3 mps 653 mmHg 78%
    09:00 -1°C° 0 mm 2 mps 654 mmHg 74%
    10:00 +1°C° 0 mm 2 mps 654 mmHg 71%
    11:00 +2°C° 0 mm 2 mps 654 mmHg 70%
    12:00 +3°C° 0 mm 2 mps 654 mmHg 69%
    13:00 +4°C° 0 mm 1 mps 654 mmHg 67%
    14:00 +3°C° 0 mm 1 mps 654 mmHg 71%
    15:00 +3°C° 0 mm 1 mps 654 mmHg 74%
    16:00 +2°C° 0 mm 1 mps 654 mmHg 78%
    17:00 +1°C° 0 mm 1 mps 654 mmHg 79%
    18:00 0°C° 0 mm 1 mps 654 mmHg 80%
    19:00 0°C° 0 mm 1 mps 654 mmHg 81%
    20:00 0°C° 0 mm 1 mps 654 mmHg 81%
    21:00 -1°C° 0 mm 1 mps 655 mmHg 82%
    22:00 -1°C° 0 mm 1 mps 655 mmHg 82%
    23:00 -3°C° 0 mm 2 mps 655 mmHg 83%

    Day after tomorrow, 20 December, Thursday

    Time Temperature Precipitation Wind Pressure Humidity
    00:00 -3°C° 0 mm 2 mps 655 mmHg 83%
    01:00 -3°C° 0 mm 2 mps 655 mmHg 84%
    02:00 -3°C° 0 mm 2 mps 655 mmHg 84%
    03:00 -3°C° 0 mm 2 mps 655 mmHg 85%
    04:00 -3°C° 0 mm 2 mps 655 mmHg 85%
    05:00 -3°C° 0 mm 2 mps 655 mmHg 85%
    06:00 -3°C° 0 mm 2 mps 655 mmHg 85%
    07:00 -4°C° 0 mm 3 mps 655 mmHg 85%
    08:00 -2°C° 0 mm 3 mps 655 mmHg 83%
    09:00 0°C° 0 mm 3 mps 656 mmHg 81%
    10:00 +1°C° 0 mm 3 mps 656 mmHg 78%
    11:00 +2°C° 0 mm 3 mps 656 mmHg 77%
    12:00 +2°C° 0 mm 3 mps 656 mmHg 76%
    13:00 +3°C° 0 mm 3 mps 656 mmHg 75%
    14:00 +2°C° 0 mm 3 mps 655 mmHg 78%
    15:00 +1°C° 0 mm 3 mps 655 mmHg 81%
    16:00 +1°C° 0 mm 3 mps 655 mmHg 85%
    17:00 0°C° 0 mm 3 mps 655 mmHg 86%
    18:00 -1°C° 0 mm 3 mps 655 mmHg 88%
    19:00 -2°C° 0 mm 4 mps 655 mmHg 90%
    20:00 -2°C° 0 mm 4 mps 655 mmHg 88%
    21:00 -2°C° 0 mm 4 mps 655 mmHg 86%
    22:00 -2°C° 0 mm 4 mps 655 mmHg 84%
    23:00 -2°C° 0 mm 4 mps 655 mmHg 84%

    21 December, Friday

    Time Temperature Precipitation Wind Pressure Humidity
    00:00 -1°C° 0 mm 4 mps 655 mmHg 84%
    01:00 -1°C° 0 mm 4 mps 656 mmHg 84%
    02:00 -1°C° 0 mm 4 mps 655 mmHg 86%
    03:00 0°C° 0 mm 3 mps 655 mmHg 87%
    04:00 0°C° 0 mm 3 mps 655 mmHg 89%
    05:00 0°C° 0 mm 3 mps 655 mmHg 89%
    06:00 0°C° 0 mm 3 mps 655 mmHg 90%
    07:00 0°C° 0 mm 3 mps 656 mmHg 90%
    08:00 +2°C° 0 mm 2 mps 656 mmHg 87%
    09:00 +3°C° 0 mm 2 mps 657 mmHg 84%
    10:00 +5°C° 0 mm 2 mps 657 mmHg 81%
    11:00 +5°C° 0.1 mm 2 mps 657 mmHg 80%
    12:00 +6°C° 0.1 mm 2 mps 657 mmHg 79%
    13:00 +6°C° 0.1 mm 2 mps 657 mmHg 77%
    14:00 +5°C° 0.1 mm 2 mps 657 mmHg 81%
    15:00 +6°C° 0.1 mm 1 mps 657 mmHg 85%
    16:00 +5°C° 0.1 mm 1 mps 657 mmHg 89%
    17:00 +4°C° 0 mm 1 mps 657 mmHg 90%
    18:00 +4°C° 0 mm 1 mps 657 mmHg 91%
    19:00 +3°C° 0 mm 1 mps 657 mmHg 92%
    20:00 +3°C° 0 mm 1 mps 657 mmHg 92%
    21:00 +2°C° 0 mm 1 mps 657 mmHg 92%
    22:00 +2°C° 0 mm 1 mps 657 mmHg 92%
    23:00 +2°C° 0 mm 1 mps 657 mmHg 92%

    22 December, Saturday

    Time Temperature Precipitation Wind Pressure Humidity
    00:00 +2°C° 0 mm 1 mps 657 mmHg 92%
    01:00 +2°C° 0 mm 1 mps 657 mmHg 92%
    02:00 +2°C° 0 mm 1 mps 656 mmHg 92%
    03:00 +2°C° 0 mm 1 mps 656 mmHg 91%
    04:00 +2°C° 0 mm 1 mps 656 mmHg 91%
    05:00 +2°C° 0 mm 1 mps 656 mmHg 91%
    06:00 +1°C° 0 mm 1 mps 656 mmHg 90%
    07:00 +1°C° 0 mm 1 mps 657 mmHg 90%
    08:00 +3°C° 0 mm 1 mps 657 mmHg 87%
    09:00 +4°C° 0 mm 1 mps 657 mmHg 83%
    10:00 +5°C° 0 mm 1 mps 658 mmHg 79%
    11:00 +6°C° 0 mm 1 mps 658 mmHg 77%
    12:00 +5°C° 0 mm 2 mps 657 mmHg 75%
    13:00 +6°C° 0 mm 2 mps 657 mmHg 73%
    14:00 +5°C° 0 mm 2 mps 657 mmHg 76%
    15:00 +5°C° 0 mm 1 mps 657 mmHg 79%
    16:00 +5°C° 0 mm 1 mps 656 mmHg 82%
    17:00 +4°C° 0 mm 1 mps 656 mmHg 84%
    18:00 +3°C° 0 mm 1 mps 656 mmHg 86%
    19:00 +2°C° 0 mm 1 mps 656 mmHg 88%
    20:00 +2°C° 0 mm 1 mps 656 mmHg 87%
    21:00 +2°C° 0 mm 1 mps 656 mmHg 87%
    22:00 +2°C° 0 mm 1 mps 656 mmHg 87%
    23:00 +2°C° 0 mm 1 mps 656 mmHg 86%

    23 December, Sunday

    Time Temperature Precipitation Wind Pressure Humidity
    00:00 +2°C° 0 mm 1 mps 656 mmHg 86%
    01:00 +1°C° 0 mm 1 mps 656 mmHg 86%
    02:00 +1°C° 0 mm 1 mps 656 mmHg 85%
    03:00 +1°C° 0 mm 1 mps 655 mmHg 85%
    04:00 +1°C° 0 mm 1 mps 655 mmHg 85%
    05:00 +1°C° 0 mm 1 mps 655 mmHg 85%
    06:00 +1°C° 0 mm 1 mps 655 mmHg 85%
    07:00 +1°C° 0 mm 1 mps 655 mmHg 84%
    08:00 +3°C° 0 mm 1 mps 656 mmHg 80%
    09:00 +4°C° 0 mm 1 mps 656 mmHg 75%
    10:00 +6°C° 0 mm 1 mps 657 mmHg 71%
    11:00 +6°C° 0 mm 1 mps 657 mmHg 70%
    12:00 +7°C° 0 mm 1 mps 657 mmHg 69%
    13:00 +7°C° 0 mm 2 mps 656 mmHg 68%
    14:00 +6°C° 0 mm 2 mps 656 mmHg 73%
    15:00 +5°C° 0 mm 2 mps 656 mmHg 77%
    16:00 +4°C° 0 mm 2 mps 656 mmHg 82%
    17:00 +4°C° 0 mm 2 mps 656 mmHg 84%
    18:00 +3°C° 0 mm 2 mps 656 mmHg 85%
    19:00 +2°C° 0 mm 2 mps 656 mmHg 87%
    20:00 +2°C° 0 mm 2 mps 656 mmHg 87%
    21:00 +2°C° 0 mm 2 mps 656 mmHg 86%
    22:00 +2°C° 0 mm 2 mps 657 mmHg 86%
    23:00 +2°C° 0 mm 2 mps 656 mmHg 85%
    Show more